Location: Oregon Star Party
(44.2935°N, 120.1332°W)
Time: 06:32:23
(UTC-07:00)

Amateur Radio Satellites - All Passes

Search period start: 27 July 2016 06:02
Search period end: 28 July 2016 06:02
Location: Oregon Star Party, 44.2935°N, 120.1332°W

Satellite Date Start Highest point End Downlink Frequencies (MHz)
Time Altitude Azimuth
GOMX 1 27 Jul 06:14:07 06:17:02 15° 90° (E) 06:20:01 467.674
HORYU 2 27 Jul 06:20:33 06:25:02 74° 286° (WNW) 06:29:28 437.375
LilacSat-2 27 Jul 06:25:27 06:28:05 17° 92° (E) 06:30:42 437.200
O/OREOS (USA 219) 27 Jul 06:34:49 06:39:21 69° 65° (ENE) 06:43:53 437.305
PCSat 27 Jul 06:36:38 06:39:07 13° 257° (WSW) 06:41:35 145.827
Cubesat XI-IV 27 Jul 06:37:52 06:42:27 28° 95° (E) 06:47:00 437.490
RS-15 27 Jul 06:40:01 06:50:45 49° 110° (ESE) 07:02:00 29.354- 29.394
BRITE-PL 27 Jul 06:48:18 06:53:04 62° 101° (E) 06:58:12 437.365/2234.400
STRAND 1 27 Jul 06:51:09 06:56:02 45° 69° (ENE) 07:00:56 437.568
CUTE-I 27 Jul 07:01:11 07:06:19 45° 99° (E) 07:11:24 437.470
CUBESAT XI-V 27 Jul 07:04:10 07:05:28 11° 272° (W) 07:06:46 437.345
AIST 2 27 Jul 07:19:24 07:22:24 19° 248° (WSW) 07:25:24 435.215
HO-68 27 Jul 07:19:41 07:21:30 11° 84° (E) 07:23:19 435.675
NOAA 15 27 Jul 07:21:17 07:26:35 88° 107° (ESE) 07:31:52 137.62
AO-7 27 Jul 07:36:00 07:40:56 17° 316° (NW) 07:45:51 29.400- 29.500
NOAA 18 27 Jul 07:37:12 07:42:48 88° 107° (ESE) 07:48:20 137.9125
DOVE 4 27 Jul 07:43:27 07:48:28 50° 99° (E) 07:53:35 437.250
GOMX 1 27 Jul 07:50:30 07:55:31 73° 285° (WNW) 08:00:49 467.674
CUTE 1.7 + AOD 2 27 Jul 07:51:37 07:53:11 12° 89° (E) 07:54:45 437.475
CINEMA 3 27 Jul 07:55:47 07:59:34 21° 91° (E) 08:03:19 145.822/145.860
LilacSat-2 27 Jul 07:58:57 08:02:32 36° 289° (WNW) 08:06:05 437.200
Cosmos 2491 27 Jul 08:05:35 08:13:34 37° 69° (ENE) 08:21:31 435.465 / 435.565
O/OREOS (USA 219) 27 Jul 08:16:08 08:18:09 13° 262° (W) 08:20:11 437.305
PRISM 27 Jul 08:17:26 08:21:15 40° 71° (ENE) 08:25:05 437.425
Cubesat XI-IV 27 Jul 08:17:38 08:22:38 41° 292° (WNW) 08:27:36 437.490
SO-50 27 Jul 08:25:51 08:30:36 55° 120° (ESE) 08:35:21 436.795
BRITE-PL 27 Jul 08:28:01 08:31:11 18° 296° (WNW) 08:34:29 437.365/2234.400
SEEDS 27 Jul 08:29:17 08:32:33 22° 93° (E) 08:35:47 437.485
STRAND 1 27 Jul 08:31:17 08:35:24 24° 266° (W) 08:39:33 437.568
COMPASS 1 27 Jul 08:41:02 08:44:09 20° 93° (E) 08:47:15 437.405
CUTE-I 27 Jul 08:41:44 08:46:07 26° 297° (WNW) 08:50:29 437.470
UWE-3 27 Jul 08:41:59 08:43:30 11° 87° (E) 08:45:00 435.000/436.395/437.385
RS-15 27 Jul 08:51:35 09:03:01 59° 315° (NW) 09:15:06 29.354- 29.394
CUBEBUG 2 27 Jul 09:02:15 09:06:19 28° 94° (E) 09:10:18 437.445
NOAA 15 27 Jul 09:02:53 09:05:37 14° 303° (WNW) 09:08:21 137.62
HO-68 27 Jul 09:03:22 09:10:33 66° 103° (ESE) 09:17:41 435.675
AAUSAT CUBESAT 2 27 Jul 09:08:50 09:12:33 32° 97° (E) 09:16:15 437.432
TIGRISAT 27 Jul 09:10:32 09:13:15 16° 61° (ENE) 09:16:01 435.000
CANX-2 27 Jul 09:11:50 09:16:05 79° 283° (WNW) 09:20:15 2200.000
NOAA 18 27 Jul 09:19:31 09:22:42 16° 304° (NW) 09:25:52 137.9125
DOVE 4 27 Jul 09:21:48 09:25:49 24° 295° (WNW) 09:29:57 437.250
Oscar 11 27 Jul 09:22:21 09:25:29 19° 92° (E) 09:28:35 145.826/435.025
Cosmos 2504 27 Jul 09:24:08 09:28:11 14° 73° (ENE) 09:32:12 435.465 / 435.565
CUTE 1.7 + AOD 2 27 Jul 09:25:17 09:29:28 64° 286° (WNW) 09:33:37 437.475
UNISAT 6 27 Jul 09:25:53 09:29:29 23° 64° (ENE) 09:33:07 437.425
GOMX 1 27 Jul 09:31:37 09:32:49 11° 302° (WNW) 09:34:03 467.674
CINEMA 3 27 Jul 09:32:05 09:36:57 50° 288° (WNW) 09:41:46 145.822/145.860
YUBILEINY 27 Jul 09:35:41 09:44:00 50° 89° (E) 09:52:23 435.215
PRISM 27 Jul 09:53:59 09:56:45 17° 267° (W) 09:59:30 437.425
Cosmos 2491 27 Jul 10:02:19 10:10:41 53° 270° (W) 10:19:05 435.465 / 435.565
ANTELSAT 27 Jul 10:03:16 10:07:45 50° 71° (ENE) 10:12:18 437.575/2403.000
SEEDS 27 Jul 10:04:33 10:08:20 33° 290° (WNW) 10:12:05 437.485
SO-50 27 Jul 10:07:19 10:11:23 26° 319° (NW) 10:15:27 436.795
FUNcube-1 27 Jul 10:15:09 10:19:39 65° 101° (E) 10:24:00 145.935
UWE-3 27 Jul 10:15:54 10:20:33 77° 284° (WNW) 10:25:03 435.000/436.395/437.385
COMPASS 1 27 Jul 10:16:03 10:19:49 35° 290° (WNW) 10:23:35 437.405
ZACube-1 27 Jul 10:16:10 10:20:41 71° 101° (E) 10:25:05 437.345
NANOSAT C BR1 27 Jul 10:35:09 10:37:55 17° 63° (ENE) 10:40:43 145.865
M-CUBED/EXP-1 PRIME 27 Jul 10:35:43 10:39:55 32° 101° (E) 10:44:07 437.505
CUBEBUG 2 27 Jul 10:38:42 10:42:57 33° 292° (WNW) 10:47:06 437.445
DUCHIFAT 1 27 Jul 10:39:16 10:42:07 18° 63° (ENE) 10:44:58 145.980
AAUSAT CUBESAT 2 27 Jul 10:44:38 10:47:52 23° 293° (WNW) 10:51:06 437.432
TIGRISAT 27 Jul 10:44:46 10:49:23 67° 259° (WSW) 10:54:05 435.000
HO-68 27 Jul 10:51:52 10:57:44 28° 303° (WNW) 11:03:35 435.675
BUGSAT 1 27 Jul 10:54:39 10:56:04 12° 60° (ENE) 10:57:29 437.445
QB50P1 27 Jul 10:56:37 11:00:17 29° 68° (ENE) 11:03:59 145.935-145.965
Oscar 11 27 Jul 10:57:44 11:01:48 41° 289° (WNW) 11:05:49 145.826/435.025
UNISAT 6 27 Jul 11:01:30 11:05:55 43° 262° (W) 11:10:25 437.425
AUBIESAT-1 27 Jul 11:01:30 11:06:00 47° 104° (ESE) 11:10:27 437.475
POPSAT HIP 1 27 Jul 11:02:54 11:06:43 33° 69° (ENE) 11:10:34 437.405
DELFI C3 27 Jul 11:05:07 11:09:03 71° 286° (WNW) 11:12:58 145.870
RS-15 27 Jul 11:08:43 11:18:49 30° 347° (NNW) 11:29:15 29.354- 29.394
Cosmos 2504 27 Jul 11:11:08 11:19:53 68° 93° (E) 11:28:37 435.465 / 435.565
QB50P2 27 Jul 11:23:28 11:27:39 59° 73° (ENE) 11:31:53 145.880/145.840
POLYITAN 1 27 Jul 11:26:05 11:30:17 61° 73° (ENE) 11:34:32 437.675
HUMSAT D 27 Jul 11:29:09 11:33:22 84° 286° (WNW) 11:37:30 437.325/437.525
YUBILEINY 27 Jul 11:32:54 11:40:59 40° 290° (WNW) 11:49:11 435.215
JAS-2 27 Jul 11:34:21 11:39:20 30° 66° (ENE) 11:43:58 435.910
AISAT 27 Jul 11:35:29 11:37:13 12° 89° (E) 11:38:57 437.250
ANTELSAT 27 Jul 11:41:28 11:44:43 19° 269° (W) 11:48:02 437.575/2403.000
FUNcube-1 27 Jul 11:52:52 11:55:20 15° 299° (WNW) 11:57:47 145.935
Oscar 19 27 Jul 11:52:54 11:54:42 12° 56° (NE) 11:56:31 437.125/150
ZACube-1 27 Jul 11:54:07 11:56:21 14° 300° (WNW) 11:58:35 437.345
NANOSAT C BR1 27 Jul 12:09:11 12:13:17 48° 260° (W) 12:17:26 145.865
ESTCUBE 1 27 Jul 12:09:19 12:13:38 44° 99° (E) 12:17:55 437.505/2401.250
M-CUBED/EXP-1 PRIME 27 Jul 12:10:11 12:14:22 33° 297° (WNW) 12:18:33 437.505
DUCHIFAT 1 27 Jul 12:13:23 12:17:27 46° 261° (W) 12:21:34 145.980
SPROUT 27 Jul 12:19:42 12:22:25 16° 91° (E) 12:25:08 437.525
50 SAT 27 Jul 12:23:53 12:27:14 35° 98° (E) 12:30:33 437.505
VELOX 1 27 Jul 12:25:01 12:29:10 37° 98° (E) 12:33:18 145.980
CUBEBUG 1 27 Jul 12:25:30 12:29:43 44° 99° (E) 12:33:56 437.445
BUGSAT 1 27 Jul 12:26:45 12:30:49 74° 257° (WSW) 12:35:00 437.445
QB50P1 27 Jul 12:32:26 12:36:02 27° 265° (W) 12:39:40 145.935-145.965
AUBIESAT-1 27 Jul 12:36:31 12:40:09 23° 301° (WNW) 12:43:46 437.475
POPSAT HIP 1 27 Jul 12:39:08 12:42:33 23° 266° (W) 12:46:01 437.405
AIST 1 27 Jul 12:52:59 12:56:07 20° 87° (E) 12:59:16
QB50P2 27 Jul 13:01:46 13:03:50 13° 270° (W) 13:05:55 145.880/145.840
AO-7 27 Jul 13:03:21 13:06:47 13° 39° (NE) 13:10:14 29.400- 29.500
POLYITAN 1 27 Jul 13:04:28 13:06:29 13° 270° (W) 13:08:31 437.675
Cosmos 2504 27 Jul 13:06:21 13:13:56 31° 294° (WNW) 13:21:30 435.465 / 435.565
DX 1 27 Jul 13:08:25 13:12:49 79° 103° (ESE) 13:17:12 434.975-435.025
AISAT 27 Jul 13:09:43 13:14:11 71° 286° (WNW) 13:18:37 437.250
Gurwin Techsat 1B 27 Jul 13:12:09 13:16:36 28° 64° (ENE) 13:21:05 435.225
TISAT 1 27 Jul 13:14:20 13:16:47 15° 91° (E) 13:19:13 437.305
JAS-2 27 Jul 13:18:40 13:24:20 42° 261° (W) 13:29:31 435.910
UKube-1 27 Jul 13:21:33 13:25:55 86° 107° (ESE) 13:30:14 .
RS-15 27 Jul 13:25:28 13:36:15 34° 22° (NNE) 13:47:04 29.354- 29.394
ITAMSAT 1 27 Jul 13:26:56 13:29:34 14° 57° (ENE) 13:32:12 435.822/435.867
Oscar 19 27 Jul 13:28:04 13:33:10 79° 74° (ENE) 13:38:20 437.125/150
ESTCUBE 1 27 Jul 13:46:51 13:50:09 20° 296° (WNW) 13:53:26 437.505/2401.250
GONETS M04 27 Jul 13:49:34 13:53:10 13° 72° (ENE) 13:56:46
SPROUT 27 Jul 13:54:28 13:58:39 49° 288° (WNW) 14:02:49 437.525
50 SAT 27 Jul 13:58:19 14:00:35 16° 295° (WNW) 14:02:51 437.505
AO-85 27 Jul 14:00:10 14:05:23 53° 120° (ESE) 14:10:23 145.980
VELOX 1 27 Jul 14:01:54 14:05:26 23° 295° (WNW) 14:08:56 145.980
CUBEBUG 1 27 Jul 14:02:31 14:05:42 20° 296° (WNW) 14:08:54 437.445
ITUPSAT 1 27 Jul 14:08:31 14:09:48 11° 88° (E) 14:11:03 437.325
Cosmos 2499 27 Jul 14:14:58 14:19:21 15° 74° (ENE) 14:23:40 435.465 / 435.565
AIST 1 27 Jul 14:29:36 14:33:29 34° 285° (WNW) 14:37:25
DX 1 27 Jul 14:46:38 14:48:23 12° 301° (WNW) 14:50:08 434.975-435.025
TISAT 1 27 Jul 14:48:35 14:52:45 53° 288° (WNW) 14:56:53 437.305
AO-7 27 Jul 14:49:39 14:57:34 49° 61° (ENE) 15:05:31 29.400- 29.500
Gurwin Techsat 1B 27 Jul 14:51:21 14:56:22 42° 262° (W) 15:01:25 435.225
SWISSCUBE 27 Jul 14:58:54 15:03:24 40° 98° (E) 15:07:50 437.505
UKube-1 27 Jul 15:00:05 15:01:17 11° 302° (WNW) 15:02:29 .
ITAMSAT 1 27 Jul 15:03:03 15:08:17 90° 194° (SSW) 15:13:33 435.822/435.867
Oscar 19 27 Jul 15:10:41 15:13:06 13° 271° (W) 15:15:32 437.125/150
SO-50 27 Jul 15:16:30 15:19:19 15° 32° (NNE) 15:22:05 436.795
BEESAT 27 Jul 15:20:05 15:24:49 59° 101° (E) 15:29:30 436.000
CUSAT 1 27 Jul 15:30:40 15:33:25 34° 262° (W) 15:36:43 437.405
RS-15 27 Jul 15:38:55 15:51:19 73° 51° (NE) 16:03:35 29.354- 29.394
GONETS M04 27 Jul 15:39:38 15:48:13 69° 93° (E) 15:56:52
AO-85 27 Jul 15:41:31 15:46:08 29° 317° (NW) 15:50:32 145.980
ITUPSAT 1 27 Jul 15:43:28 15:48:16 85° 287° (WNW) 15:53:01 437.325
HORYU 2 27 Jul 15:45:40 15:48:10 15° 61° (ENE) 15:50:41 437.375
DANDE 27 Jul 15:57:35 16:00:08 53° 262° (W) 16:02:54 436.750
MOZHAYETS 4 27 Jul 15:58:02 16:01:24 20° 92° (E) 16:04:45
Cosmos 2499 27 Jul 16:02:08 16:10:57 72° 94° (E) 16:19:33 435.465 / 435.565
SWISSCUBE 27 Jul 16:37:08 16:40:58 25° 296° (WNW) 16:44:47 437.505
AO-7 27 Jul 16:42:38 16:50:26 42° 261° (W) 16:58:18 29.400- 29.500
ITAMSAT 1 27 Jul 16:46:38 16:48:27 12° 272° (W) 16:50:17 435.822/435.867
CUTE-I 27 Jul 16:48:00 16:50:37 14° 56° (NE) 16:53:14 437.470
SO-50 27 Jul 16:55:57 17:00:38 75° 54° (NE) 17:05:08 436.795
KKS-1 27 Jul 16:56:17 17:00:48 71° 103° (ESE) 17:05:16 437.445
BEESAT 27 Jul 16:58:59 17:02:08 18° 299° (WNW) 17:05:18 436.000
PHONESAT 2.4 27 Jul 17:04:32 17:06:28 15° 155° (SSE) 17:08:23 2401.200-2431.200
NOAA 15 27 Jul 17:04:47 17:08:53 24° 63° (ENE) 17:13:01 137.62
LilacSat-2 27 Jul 17:10:11 17:11:49 12° 62° (ENE) 17:13:25 437.200
CUBESAT XI-V 27 Jul 17:18:48 17:21:54 18° 91° (E) 17:25:00 437.345
HORYU 2 27 Jul 17:19:44 17:24:12 66° 258° (WSW) 17:28:42 437.375
ITUPSAT 1 27 Jul 17:23:47 17:25:20 11° 303° (WNW) 17:26:52 437.325
GOMX 1 27 Jul 17:24:51 17:27:20 15° 62° (ENE) 17:29:53 467.674
NOAA 18 27 Jul 17:25:43 17:30:25 30° 63° (ENE) 17:35:10 137.9125
STARS 27 Jul 17:33:40 17:38:09 88° 109° (ESE) 17:42:35 437.465
MOZHAYETS 4 27 Jul 17:34:26 17:38:47 44° 290° (WNW) 17:43:06
GONETS M04 27 Jul 17:38:34 17:45:48 28° 295° (WNW) 17:53:06
HO-68 27 Jul 17:50:58 17:53:57 13° 46° (NE) 17:56:58 435.675
RS-15 27 Jul 17:52:13 18:02:58 38° 254° (WSW) 18:13:36 29.354- 29.394
Cosmos 2499 27 Jul 17:57:25 18:04:48 29° 294° (WNW) 18:12:02 435.465 / 435.565
Cubesat XI-IV 27 Jul 18:01:09 18:06:23 54° 70° (ENE) 18:11:37 437.490
BRITE-PL 27 Jul 18:01:29 18:05:37 80° 76° (ENE) 18:09:49 437.365/2234.400
CUTE-I 27 Jul 18:24:28 18:29:51 85° 74° (ENE) 18:35:16 437.470
KKS-1 27 Jul 18:34:29 18:36:47 14° 300° (WNW) 18:39:06 437.445
SO-50 27 Jul 18:38:09 18:40:28 14° 252° (WSW) 18:42:43 436.795
PHONESAT 2.4 27 Jul 18:39:37 18:42:30 35° 172° (S) 18:45:21 2401.200-2431.200
LilacSat-2 27 Jul 18:41:47 18:45:36 60° 259° (W) 18:49:29 437.200
NOAA 15 27 Jul 18:43:17 18:48:21 50° 260° (W) 18:53:28 137.62
CUTE 1.7 + AOD 2 27 Jul 18:46:25 18:47:59 12° 61° (ENE) 18:49:33 437.475
DOVE 4 27 Jul 18:50:45 18:54:57 53° 72° (ENE) 18:59:24 437.250
CUBESAT XI-V 27 Jul 18:55:06 18:59:35 51° 288° (WNW) 19:04:02 437.345
CINEMA 3 27 Jul 18:59:07 19:02:35 22° 64° (ENE) 19:06:11 145.822/145.860
GOMX 1 27 Jul 19:00:53 19:04:58 54° 261° (W) 19:09:16 467.674
STRAND 1 27 Jul 19:01:48 19:04:07 13° 88° (E) 19:06:27 437.568
BEESAT 3 27 Jul 19:03:42 19:07:37 87° 121° (ESE) 19:11:36 437.485
NOAA 18 27 Jul 19:05:39 19:10:53 43° 261° (W) 19:16:11 137.9125
BEESAT 2 27 Jul 19:11:02 19:14:54 55° 121° (ESE) 19:18:49 435.950
STARS 27 Jul 19:12:26 19:13:48 11° 302° (WNW) 19:15:11 437.465
SEEDS 27 Jul 19:22:47 19:25:51 20° 65° (ENE) 19:28:56 437.485
HO-68 27 Jul 19:33:13 19:40:12 58° 67° (ENE) 19:47:14 435.675
COMPASS 1 27 Jul 19:33:40 19:36:32 18° 65° (ENE) 19:39:25 437.405
PCSat 27 Jul 19:33:59 19:39:18 61° 116° (ESE) 19:44:40 145.827
UWE-3 27 Jul 19:40:26 19:42:32 13° 59° (ENE) 19:44:38 435.000/436.395/437.385
Cubesat XI-IV 27 Jul 19:42:43 19:46:46 22° 268° (W) 19:50:51 437.490
YUBILEINY 27 Jul 19:43:57 19:51:13 27° 64° (ENE) 19:58:25 435.215
AAUSAT CUBESAT 2 27 Jul 20:00:36 20:04:07 27° 68° (ENE) 20:07:38 437.432
CUBEBUG 2 27 Jul 20:01:37 20:05:34 28° 67° (ENE) 20:09:36 437.445
CANX-2 27 Jul 20:05:37 20:09:55 88° 77° (ENE) 20:14:13 2200.000
CUTE-I 27 Jul 20:08:09 20:10:35 13° 272° (W) 20:13:01 437.470
PHONESAT 2.4 27 Jul 20:15:50 20:18:42 35° 189° (S) 20:21:34 2401.200-2431.200
Oscar 11 27 Jul 20:18:49 20:21:56 19° 64° (ENE) 20:25:02 145.826/435.025
CUTE 1.7 + AOD 2 27 Jul 20:18:57 20:23:13 77° 258° (WSW) 20:27:30 437.475
DOVE 4 27 Jul 20:30:30 20:33:04 15° 271° (W) 20:35:45 437.250
CINEMA 3 27 Jul 20:35:03 20:39:23 44° 262° (W) 20:43:58 145.822/145.860
STRAND 1 27 Jul 20:38:47 20:43:55 80° 286° (WNW) 20:49:00 437.568
BEESAT 3 27 Jul 20:43:42 20:45:52 14° 323° (NW) 20:48:04 437.485
ISS 27 Jul 20:44:29 20:46:39 17° 134° (SE) 20:48:49 145.825
O/OREOS (USA 219) 27 Jul 20:48:34 20:52:57 59° 110° (ESE) 20:57:22 437.305
BEESAT 2 27 Jul 20:50:09 20:53:03 19° 319° (NW) 20:55:58 435.950
AO-85 27 Jul 20:51:50 20:54:03 13° 30° (NNE) 20:56:10 145.980
SEEDS 27 Jul 20:57:18 21:01:17 40° 262° (W) 21:05:18 437.485
Cosmos 2504 27 Jul 21:03:17 21:10:00 27° 64° (ENE) 21:16:17 435.465 / 435.565
COMPASS 1 27 Jul 21:07:48 21:11:47 43° 261° (W) 21:15:47 437.405
Cosmos 2491 27 Jul 21:09:07 21:16:58 40° 86° (E) 21:24:49 435.465 / 435.565
FUNcube-1 27 Jul 21:11:32 21:16:00 61° 73° (ENE) 21:20:33 145.935
ZACube-1 27 Jul 21:12:49 21:17:19 67° 74° (ENE) 21:21:54 437.345
UWE-3 27 Jul 21:13:42 21:18:17 81° 256° (WSW) 21:23:00 435.000/436.395/437.385
AIST 2 27 Jul 21:17:01 21:21:02 57° 121° (ESE) 21:25:06 435.215
PCSat 27 Jul 21:18:38 21:23:07 26° 316° (NW) 21:27:37 145.827
HO-68 27 Jul 21:22:09 21:28:16 30° 266° (W) 21:34:26 435.675
M-CUBED/EXP-1 PRIME 27 Jul 21:23:39 21:27:17 44° 65° (ENE) 21:31:15 437.505
PRISM 27 Jul 21:32:11 21:36:12 53° 101° (E) 21:40:13 437.425
AAUSAT CUBESAT 2 27 Jul 21:35:59 21:39:33 27° 265° (W) 21:43:07 437.432
CUBEBUG 2 27 Jul 21:37:55 21:42:04 33° 265° (W) 21:46:20 437.445
YUBILEINY 27 Jul 21:40:05 21:48:54 73° 266° (W) 21:57:38 435.215
AUBIESAT-1 27 Jul 21:48:56 21:52:45 69° 69° (ENE) 21:56:56 437.475
DELFI C3 27 Jul 21:52:03 21:56:02 80° 76° (ENE) 22:00:01 145.870
PHONESAT 2.4 27 Jul 21:52:49 21:54:44 15° 205° (SSW) 21:56:39 2401.200-2431.200
Oscar 11 27 Jul 21:53:36 21:57:45 44° 262° (W) 22:01:56 145.826/435.025
ISS 27 Jul 22:19:30 22:22:45 71° 331° (NNW) 22:26:00 145.825
STRAND 1 27 Jul 22:20:23 22:22:15 12° 304° (NW) 22:24:07 437.568
HUMSAT D 27 Jul 22:21:17 22:25:36 81° 76° (ENE) 22:29:55 437.325/437.525
O/OREOS (USA 219) 27 Jul 22:29:44 22:32:45 17° 309° (NW) 22:35:47 437.305
AO-85 27 Jul 22:31:03 22:35:30 64° 52° (NE) 22:39:34 145.980
AISAT 27 Jul 22:34:26 22:36:46 14° 61° (ENE) 22:39:06 437.250
TIGRISAT 27 Jul 22:35:25 22:39:08 23° 93° (E) 22:42:46 435.000
UKube-1 27 Jul 22:45:49 22:46:15 10° 58° (ENE) 22:46:42 .
FUNcube-1 27 Jul 22:50:05 22:52:39 15° 271° (W) 22:55:13 145.935
UNISAT 6 27 Jul 22:51:40 22:55:56 36° 96° (E) 23:00:07 437.425
ZACube-1 27 Jul 22:51:49 22:54:04 13° 271° (W) 22:56:20 437.345
Cosmos 2504 27 Jul 22:56:03 23:04:10 68° 267° (W) 23:11:40 435.465 / 435.565
AIST 2 27 Jul 22:56:48 22:59:52 20° 320° (NW) 23:02:57 435.215
M-CUBED/EXP-1 PRIME 27 Jul 22:59:40 23:02:07 16° 265° (W) 23:04:42 437.505
50 SAT 27 Jul 23:03:16 23:06:07 22° 68° (ENE) 23:08:58 437.505
Cosmos 2491 27 Jul 23:05:16 23:13:36 49° 287° (WNW) 23:22:01 435.465 / 435.565
PRISM 27 Jul 23:08:44 23:11:07 15° 298° (WNW) 23:13:28 437.425
ESTCUBE 1 27 Jul 23:10:09 23:14:29 49° 71° (ENE) 23:18:49 437.505/2401.250
SPROUT 27 Jul 23:15:09 23:17:49 16° 63° (ENE) 23:20:28 437.525
CUBEBUG 1 27 Jul 23:22:51 23:26:55 44° 71° (ENE) 23:31:03 437.445
VELOX 1 27 Jul 23:23:43 23:27:48 40° 70° (ENE) 23:31:55 145.980
AUBIESAT-1 27 Jul 23:27:03 23:27:48 10° 268° (W) 23:28:35 437.475
ANTELSAT 27 Jul 23:29:53 23:34:34 87° 104° (ESE) 23:39:06 437.575/2403.000
YUBILEINY 27 Jul 23:39:43 23:44:01 15° 287° (WNW) 23:48:19 435.215
NANOSAT C BR1 27 Jul 23:52:21 23:55:48 23° 94° (E) 23:59:13 145.865
DUCHIFAT 1 27 Jul 23:56:12 23:59:41 24° 94° (E) 00:03:08 145.980
ISS 27 Jul 23:56:50 23:59:34 24° 350° (N) 00:02:19 145.825
DX 1 28 Jul 00:05:09 00:09:29 82° 73° (ENE) 00:13:50 434.975-435.025
TISAT 1 28 Jul 00:07:59 00:10:18 15° 62° (ENE) 00:12:39 437.305
BUGSAT 1 28 Jul 00:08:13 00:10:38 15° 91° (E) 00:13:03 437.445
AISAT 28 Jul 00:08:22 00:12:43 66° 259° (W) 00:17:07 437.250
TIGRISAT 28 Jul 00:11:38 00:15:56 38° 291° (WNW) 00:20:09 435.000
AO-85 28 Jul 00:13:08 00:15:17 14° 252° (WSW) 00:17:22 145.980
QB50P1 28 Jul 00:14:47 00:18:53 42° 98° (E) 00:22:57 145.935-145.965
UKube-1 28 Jul 00:17:16 00:21:34 88° 76° (ENE) 00:25:55 .
POPSAT HIP 1 28 Jul 00:21:16 00:25:27 49° 99° (E) 00:29:36 437.405
JAS-2 28 Jul 00:25:33 00:29:26 20° 93° (E) 00:33:30 435.910
UNISAT 6 28 Jul 00:28:40 00:32:29 26° 294° (WNW) 00:36:14 437.425
AIST 1 28 Jul 00:34:15 00:38:35 64° 80° (E) 00:42:54
50 SAT 28 Jul 00:36:30 00:39:38 26° 264° (W) 00:42:46 437.505
QB50P2 28 Jul 00:42:21 00:46:41 90° 19° (NNE) 00:50:58 145.880/145.840
POLYITAN 1 28 Jul 00:45:00 00:49:20 89° 280° (W) 00:53:37 437.675
ESTCUBE 1 28 Jul 00:48:34 00:51:33 17° 268° (W) 00:54:33 437.505/2401.250
SPROUT 28 Jul 00:49:09 00:53:19 53° 260° (W) 00:57:34 437.525
Cosmos 2504 28 Jul 00:53:02 00:55:43 12° 289° (WNW) 00:58:22 435.465 / 435.565
BEESAT 28 Jul 00:54:16 00:55:34 11° 57° (ENE) 00:56:54 436.000
CUBEBUG 1 28 Jul 01:00:28 01:03:26 18° 268° (W) 01:06:26 437.445
VELOX 1 28 Jul 01:01:09 01:04:25 20° 267° (W) 01:07:43 145.980
ANTELSAT 28 Jul 01:08:48 01:10:32 12° 302° (WNW) 01:12:15 437.575/2403.000
ITUPSAT 1 28 Jul 01:15:52 01:19:00 18° 61° (ENE) 01:22:08 437.325
NANOSAT C BR1 28 Jul 01:27:43 01:31:35 33° 291° (WNW) 01:35:25 145.865
DUCHIFAT 1 28 Jul 01:31:36 01:35:24 32° 291° (WNW) 01:39:13 145.980
ISS 28 Jul 01:33:57 01:36:43 25° 11° (N) 01:39:29 145.825
Oscar 19 28 Jul 01:38:31 01:42:43 24° 94° (E) 01:46:54 437.125/150
TISAT 1 28 Jul 01:41:21 01:45:29 58° 259° (W) 01:49:41 437.305
BUGSAT 1 28 Jul 01:42:10 01:46:19 53° 288° (WNW) 01:50:28 437.445
BEESAT 3 28 Jul 01:43:09 01:45:09 13° 36° (NE) 01:47:08 437.485
GONETS M04 28 Jul 01:47:59 01:56:02 38° 69° (ENE) 02:04:04
QB50P1 28 Jul 01:51:17 01:54:23 20° 296° (WNW) 01:57:28 145.935-145.965
BEESAT 2 28 Jul 01:52:01 01:52:46 10° 32° (NNE) 01:53:30 435.950
Cosmos 2499 28 Jul 01:53:01 01:59:29 27° 64° (ENE) 02:05:32 435.465 / 435.565
POPSAT HIP 1 28 Jul 01:58:01 02:00:52 17° 297° (WNW) 02:03:42 437.405
SWISSCUBE 28 Jul 02:06:38 02:11:18 56° 71° (ENE) 02:16:00 437.505
JAS-2 28 Jul 02:09:42 02:14:51 56° 289° (WNW) 02:20:25 435.910
AIST 1 28 Jul 02:13:56 02:15:36 12° 277° (W) 02:17:15
QB50P2 28 Jul 02:21:09 02:21:47 10° 301° (WNW) 02:22:24 145.880/145.840
POLYITAN 1 28 Jul 02:24:00 02:24:25 10° 301° (WNW) 02:24:50 437.675
BEESAT 28 Jul 02:27:46 02:32:33 81° 74° (ENE) 02:37:22 436.000
PCSat 28 Jul 02:38:01 02:41:14 16° 35° (NE) 02:44:26 145.827
ITUPSAT 1 28 Jul 02:51:37 02:56:22 62° 258° (WSW) 03:01:08 437.325
AO-7 28 Jul 02:53:11 02:55:23 11° 84° (E) 02:57:35 29.400- 29.500
CUSAT 1 28 Jul 02:56:35 02:57:47 11° 93° (E) 02:58:54 437.405
STARS 28 Jul 02:58:54 03:00:13 11° 58° (ENE) 03:01:33 437.465
MOZHAYETS 4 28 Jul 03:01:20 03:05:02 24° 65° (ENE) 03:08:44
Gurwin Techsat 1B 28 Jul 03:05:27 03:10:47 68° 102° (ESE) 03:16:03 435.225
ISS 28 Jul 03:10:16 03:13:31 76° 30° (NNE) 03:16:47 145.825
ITAMSAT 1 28 Jul 03:14:45 03:19:12 28° 95° (E) 03:23:36 435.822/435.867
Oscar 19 28 Jul 03:17:18 03:22:13 45° 291° (WNW) 03:27:07 437.125/150
BEESAT 3 28 Jul 03:19:28 03:23:28 84° 59° (ENE) 03:27:25 437.485
DANDE 28 Jul 03:26:57 03:29:28 14° 92° (E) 03:31:42 436.750
BEESAT 2 28 Jul 03:27:31 03:31:29 56° 52° (NE) 03:35:24 435.950
GONETS M04 28 Jul 03:44:42 03:53:08 53° 270° (W) 04:01:35
Cosmos 2499 28 Jul 03:45:33 03:53:19 65° 267° (W) 04:00:29 435.465 / 435.565
SWISSCUBE 28 Jul 03:46:17 03:49:27 17° 269° (W) 03:52:36 437.505
KKS-1 28 Jul 03:55:34 03:59:59 78° 76° (ENE) 04:04:28 437.445
AIST 2 28 Jul 04:00:03 04:01:37 12° 32° (NNE) 04:03:12 435.215
BEESAT 28 Jul 04:09:14 04:10:56 12° 272° (W) 04:12:38 436.000
PCSat 28 Jul 04:20:14 04:25:40 68° 56° (ENE) 04:31:03 145.827
CUBESAT XI-V 28 Jul 04:23:40 04:27:08 21° 65° (ENE) 04:30:36 437.345
STARS 28 Jul 04:31:29 04:35:53 87° 260° (W) 04:40:19 437.465
CUSAT 1 28 Jul 04:36:01 04:39:40 36° 282° (WNW) 04:42:36 437.405
MOZHAYETS 4 28 Jul 04:37:39 04:41:59 39° 263° (W) 04:46:21
AO-7 28 Jul 04:41:32 04:49:50 62° 104° (ESE) 04:58:03 29.400- 29.500
Gurwin Techsat 1B 28 Jul 04:46:37 04:50:11 19° 300° (WNW) 04:53:45 435.225
ISS 28 Jul 04:47:36 04:49:35 15° 227° (SW) 04:51:34 145.825
ITAMSAT 1 28 Jul 04:53:57 04:58:46 39° 292° (WNW) 05:03:33 435.822/435.867
BEESAT 2 28 Jul 05:06:33 05:08:53 15° 249° (WSW) 05:11:11 435.950
DANDE 28 Jul 05:06:47 05:12:08 59° 281° (W) 05:16:07 436.750
HORYU 2 28 Jul 05:09:47 05:13:09 21° 93° (E) 05:16:29 437.375
O/OREOS (USA 219) 28 Jul 05:18:22 05:21:37 19° 52° (NE) 05:24:52 437.305
KKS-1 28 Jul 05:36:04 05:37:07 11° 272° (W) 05:38:11 437.445
AIST 2 28 Jul 05:36:48 05:40:58 62° 53° (NE) 05:45:05 435.215
Cosmos 2499 28 Jul 05:43:15 05:44:34 10° 289° (WNW) 05:45:52 435.465 / 435.565
